Weather History for KWRL - March, 2013

Change the Weather History Date:

Sunday, March 31, 2013

  Actual Average Record
Temperature  
Mean Temperature 45 °F 41 °F  
Max Temperature 63 °F 56 °F 81 °F (2012)
Min Temperature 27 °F 27 °F 13 °F (2009)
Degree Days  
Heating Degree Days 20 24  
Month to date heating degree days 873 885  
Since 1 July heating degree days 6455 6886  
Cooling Degree Days 0 0  
Month to date cooling degree days 0 0  
Year to date cooling degree days 0 0  
Moisture  
Dew Point 25 °F    
Average Humidity 53    
Maximum Humidity 85    
Minimum Humidity 20    
Precipitation  
Precipitation 0.00 in 0.02 in 0.16 in (2007)
Month to date precipitation 0.20 0.46  
Year to date precipitation 0.59 0.88  
Sea Level Pressure  
Sea Level Pressure 30.05 in    
Wind  
Wind Speed 6 mph (NNW)    
Max Wind Speed 17 mph    
Max Gust Speed 23 mph    
Visibility 10 miles    
Events      
T = Trace of Precipitation, MM = Missing Value Source: NWS Daily Summary

Daily Weather History Graph

Daily Weather History Graph

Search for Another Location

Airport or City:

Trip Planner

Search our weather history database for the weather conditions in past years. The results will help you decide how hot, cold, wet, or windy it might be!

Date:

Astronomy

Mar. 31, 2013 Rise Set
Actual Time 6:54 AM MDT 7:37 PM MDT
Civil Twilight 6:25 AM MDT 8:07 PM MDT
Nautical Twilight 5:50 AM MDT 8:41 PM MDT
Astronomical Twilight 5:15 AM MDT 9:17 PM MDT
Moon No Moon Rise 9:36 AM MDT (3/31)
Length of Visible Light 13h 41m
Length of Day
12h 43m
Waning Gibbous, 77% of the Moon is Illuminated
Mar 31
Waning Gibbous
Apr 2
Last Quarter
Apr 10
New
Apr 18
First Quarter
Apr 25
Full

Hourly Weather History & Observations

Time (MDT) Temp. Windchill Dew Point Humidity Pressure Visibility Wind Dir Wind Speed Gust Speed Precip Events Conditions
12:53 AM 37.9 °F 32.1 °F 28.0 °F 68% 30.11 in 10.0 mi South 8.1 mph - N/A   Clear
1:53 AM 36.0 °F 30.3 °F 28.0 °F 73% 30.09 in 10.0 mi SSE 6.9 mph - N/A   Clear
2:53 AM 34.0 °F 26.6 °F 27.0 °F 75% 30.06 in 10.0 mi ESE 9.2 mph - N/A   Clear
3:53 AM 30.9 °F 27.5 °F 27.0 °F 85% 30.05 in 10.0 mi NW 3.5 mph - N/A   Clear
4:53 AM 30.9 °F - 26.1 °F 82% 30.02 in 10.0 mi Calm Calm - N/A   Clear
5:53 AM 28.0 °F 24.2 °F 25.0 °F 88% 30.04 in 10.0 mi WSW 3.5 mph - N/A   Clear
6:53 AM 28.0 °F 21.7 °F 25.0 °F 88% 30.04 in 10.0 mi SSW 5.8 mph - N/A   Clear
7:53 AM 33.1 °F - 28.9 °F 85% 30.07 in 10.0 mi Calm Calm - N/A   Clear
8:53 AM 37.0 °F 31.6 °F 30.0 °F 76% 30.08 in 10.0 mi SW 6.9 mph - N/A   Clear
9:53 AM 42.1 °F 40.2 °F 30.9 °F 65% 30.06 in 10.0 mi WSW 3.5 mph - N/A   Clear
10:53 AM 50.0 °F - 33.1 °F 52% 30.05 in 10.0 mi Variable 3.5 mph - N/A   Clear
11:53 AM 54.0 °F - 27.0 °F 35% 30.05 in 10.0 mi WNW 5.8 mph - N/A   Clear
12:53 PM 57.9 °F - 23.0 °F 26% 30.04 in 10.0 mi NNE 11.5 mph 17.3 mph N/A   Clear
1:53 PM 59.0 °F - 21.9 °F 24% 30.04 in 10.0 mi North 6.9 mph 16.1 mph N/A   Clear
2:53 PM 61.0 °F - 21.0 °F 21% 30.02 in 10.0 mi North 10.4 mph 19.6 mph N/A   Clear
3:53 PM 62.1 °F - 21.0 °F 21% 30.00 in 10.0 mi North 4.6 mph - N/A   Clear
4:53 PM 63.0 °F - 21.0 °F 20% 29.99 in 10.0 mi NNE 9.2 mph - N/A   Clear
5:53 PM 61.0 °F - 21.0 °F 21% 30.00 in 10.0 mi North 9.2 mph - N/A   Clear
6:53 PM 57.9 °F - 21.9 °F 25% 30.02 in 10.0 mi North 10.4 mph - N/A   Clear
8:53 PM 48.9 °F - 25.0 °F 39% 30.06 in 10.0 mi North 4.6 mph - N/A   Clear
9:53 PM 46.0 °F 42.5 °F 25.0 °F 44% 30.06 in 10.0 mi North 6.9 mph - N/A   Clear
10:53 PM 43.0 °F 39.5 °F 25.0 °F 49% 30.06 in 10.0 mi NNW 5.8 mph - N/A   Clear
11:53 PM 36.0 °F 33.3 °F 24.1 °F 62% 30.08 in 10.0 mi SE 3.5 mph - N/A   Partly Cloudy